Location: Kergrach
(48.3833°N, 4.5167°W)
Time: 04:36:54
(UTC+00:00)

Meteor 1-31 Rocket - Pass Details

Date: 18 February 2020
Orbit: 522 x 546 km, 97.6° (Epoch: 30 March)

Event Time Altitude Azimuth Distance (km) Brightness Sun altitude
Rises 05:28:42 0° 8° (N) 2,666 6.5 -19.3°
Reaches altitude 10° 05:30:51 10° 3° (N) 1,773 5.5 -18.9°
Maximum altitude 05:34:32 49° 288° (WNW) 682 2.9 -18.3°
Enters shadow 05:35:03 46° 260° (W) 719 2.9 -18.2°
